Find Starlink 30964

NORAD ID: 58402 Int'l Des: 2023-180 Owner: SPXS Country: US Constellation: starlink operational
LEOCIRCULAR

現在のビュー

3D地球を読み込み中...

About Starlink 30964

Starlink 30964 (NORAD 58402) is a starlink constellation satellite (v2 mini) launched Nov 22, 2023 by SPXS of US. It operates in LEO, CIRCULAR orbit with a mass of 730.00 kg.

Starlink 30964について

説明を読み込み中...

次回通過

Passes for default location (London). Set your location on the main map for personalized predictions.

高度履歴

Loading altitude history...

軌道要素

1 58402U 23180A 26175.25217195 -.00001969 00000-0 -62047-4 0 9996
2 58402 43.0041 170.7163 0001253 256.9506 103.1206 15.27571017143920
Epoch: Jun 24, 2026 • Age: 16 hours

現在のステータス

高度 489.8 km
速度 7.62 km/s
衛星直下点 -27.92°S, 103.74°W
打ち上げ日 Nov 22, 2023
運用期間 2.5 years
タイプ internet

技術仕様

分類 Payload
質量 730.00 kg
乾燥質量 700.00 kg
総質量 730.00 kg
長さ 0.30 m
直径 4.10 m
スパン 29.00 m
形状 Box + pan
製造者 SPXS
バスタイプ Starlink V2M
フェーズステータス In Orbit
所有者/国 SPXS/US

Most Searched